User: anonymous   Login
Location: 相模原市立博物館
(35.5593°N, 139.3931°E)
Time: 05:50:50
(UTC+09:00)
Language:

FO-99 - Orbit

View from above orbital plane
View from above orbital plane
View from above satellite
View from above satellite

Ground track
Ground track

The orbit data is extracted from the following two-line orbital elements,

1 43937U 19003F   22021.55775437  .00004980  00000-0  18755-3 0  9999
2 43937  97.1505  60.8447 0021041 321.7984  38.1764 15.27335336167535
Epoch (UTC): 21 January 2022 13:23:09
Eccentricity: 0.0021041
inclination: 97.1505°
perigee height: 469 km
apogee height: 498 km
right ascension of ascending node: 60.8447°
argument of perigee: 321.7984°
revolutions per day: 15.27335336
mean anomaly at epoch: 38.1764°
orbit number at epoch: 16753

The dashed part of the orbit path shows where the satellite is in the earth's shadow,  

DLR